This is the latest recevied weather packets stored in our database for station/object KF0WJA. If no packets are shown the sender has not sent any weather packets the latest 10 day(s).
| Time | Temp. | Humidity | Pressure | Rain* | Wind** | Luminosity | Snow |
|---|---|---|---|---|---|---|---|
| 1788141420 | 32.22° C | 42% | 1013.9 hPa | 0 mm | - | 0 W/m² | - |
| 1788141115 | 32.22° C | 42% | 1014.1 hPa | 0 mm | - | 0 W/m² | - |
| 1788140810 | 32.22° C | 42% | 1014.1 hPa | 0 mm | - | 0 W/m² | - |
| 1788140505 | 32.22° C | 42% | 1013.8 hPa | 0 mm | - | 0 W/m² | - |
| 1788140202 | 32.22° C | 42% | 1013.7 hPa | 0 mm | - | 0 W/m² | - |
| 1788139901 | 31.67° C | 42% | 1013.7 hPa | 0 mm | - | 0 W/m² | - |
| 1788139596 | 31.67° C | 43% | 1013.7 hPa | 0 mm | - | 0 W/m² | - |
| 1788139291 | 32.22° C | 43% | 1013.5 hPa | 0 mm | - | 0 W/m² | - |
| 1788138990 | 32.22° C | 42% | 1013.7 hPa | 0 mm | - | 0 W/m² | - |
| 1788138686 | 32.78° C | 41% | 1013.6 hPa | 0 mm | - | 0 W/m² | - |
| 1788138382 | 33.33° C | 40% | 1013.4 hPa | 0 mm | - | 0 W/m² | - |
| 1788138077 | 33.89° C | 39% | 1013.4 hPa | 0 mm | - | 2 W/m² | - |
| 1788137777 | 33.89° C | 38% | 1013.4 hPa | 0 mm | - | 3 W/m² | - |
| 1788137472 | 34.44° C | 38% | 1013.4 hPa | 0 mm | - | 7 W/m² | - |
| 1788137168 | 35° C | 37% | 1013.5 hPa | 0 mm | - | 11 W/m² | - |
| 1788136863 | 35° C | 37% | 1013.3 hPa | 0 mm | - | 16 W/m² | - |
| 1788136559 | 35° C | 37% | 1013.2 hPa | 0 mm | - | 20 W/m² | - |
| 1788136255 | 35.56° C | 36% | 1013.2 hPa | 0 mm | - | 26 W/m² | - |
| 1788135954 | 35.56° C | 35% | 1013.1 hPa | 0 mm | - | 35 W/m² | - |
| 1788135649 | 35.56° C | 35% | 1013.2 hPa | 0 mm | - | 42 W/m² | - |
| 1788135344 | 36.11° C | 35% | 1013.2 hPa | 0 mm | - | 50 W/m² | - |
| 1788135041 | 36.11° C | 35% | 1013.3 hPa | 0 mm | - | 61 W/m² | - |
| 1788134737 | 36.67° C | 35% | 1013 hPa | 0 mm | - | 74 W/m² | - |
| 1788134436 | 36.67° C | 35% | 1013.6 hPa | 0 mm | - | 84 W/m² | - |
| 1788134135 | 36.67° C | 35% | 1013.4 hPa | 0 mm | - | 99 W/m² | - |
* Rain latest hour (hover to see other rain measurements)
** Current wind speed in m/s (hover to see current wind gust speed)